Flag for Canada Weather past 2 weeks in Igloolik, Nunavut Territory, Canada

Now
52 °F

Broken clouds.


Feels Like: 45 °F
Forecast: 48 / 66 °F
Wind: 26 mph from North

Location: Hall Beach

Current Time: Jul 23, 2014 at 1:00:39 PM

Latest Report: Jul 23, 2014 at 12:00 PM


Visibility: 15 mi

Pressure: 29.84 "Hg

Humidity: 72%

Dew point: 43 °F

Location of IgloolikLocation

Historic Weather in Igloolik — Graph

°F

Igloolik temperature yesterday

Maximum temperature yesterday: 55 °F (at 8:00 PM)
Minimum temperature yesterday: 39 °F (at 3:00 AM)
Average temperature yesterday: 47 °F

Past Weeks' High & Low Weather Summary

 TemperatureHumidityPressure
High61 °F (Jul 14, 1:00 PM)100% (Jul 16, 9:45 AM)30.23 "Hg (Jul 16, 9:45 AM)
Low36 °F (Jul 17, 4:00 AM)39% (Jul 13, 7:00 PM)29.26 "Hg (Jul 18, 1:58 AM)
Average46 °F84%29.75 "Hg
* Reported Jul 8 12:00 Noon — Jul 23 12:00 Noon, Igloolik, Weather by CustomWeather, © 2014

Note: Actual official high and low records may vary slightly from our data, if they occured in-between our weather recording intervals... More about our weather records

Advertising

Igloolik weather history for previous 24 hours

 ConditionsComfort  
Time TempWeatherWind HumidityBarometerVisibility
12:00 PM
Jul 23
52 °FBroken clouds.26 mph72%29.84 "Hg15 mi
11:00 AM52 °FPartly sunny.24 mph72%29.84 "Hg15 mi
10:00 AM50 °FScattered clouds.24 mph76%29.84 "Hg15 mi
9:00 AM48 °FPassing clouds.24 mph76%29.84 "Hg15 mi
8:00 AM48 °FScattered clouds.23 mph76%29.84 "Hg15 mi
7:00 AM45 °FSunny.21 mph81%29.83 "Hg9 mi
6:00 AM45 °FSunny.24 mph81%29.83 "Hg9 mi
5:00 AM45 °FSunny.22 mph81%29.82 "Hg9 mi
4:00 AM45 °FSunny.23 mph81%29.81 "Hg9 mi
2:00 AM46 °FSunny.21 mph82%29.79 "Hg9 mi
1:00 AM46 °FSunny.21 mph87%29.78 "Hg9 mi
12:00 AM48 °FSunny.20 mph82%29.78 "Hg9 mi
11:00 PM
Jul 22
50 °FSunny.20 mph82%29.78 "Hg9 mi
10:00 PM52 °FSunny.14 mph77%29.79 "Hg9 mi
9:00 PM54 °FSunny.18 mph72%29.78 "Hg9 mi
8:00 PM55 °FPassing clouds.22 mph67%29.77 "Hg15 mi
7:00 PM52 °FPassing clouds.17 mph72%29.77 "Hg15 mi
1:00 PM52 °FPartly sunny.16 mph72%29.75 "Hg15 mi
Weather by CustomWeather, © 2014

See weather overviewHow to use our weather pages